Theta_e
334 333 335 338 339 340 339 338 339 340 340 340 338 339 342 342 342 340 342 343 341 340 339 338 337 337 339 336 335 337 337 339 337 338 337 338 341 343 345 345 345 344 344 343 343 342 341 341 339 340 341 342 342 341 340 337 336 334 331 332 329 325 324 325 324 322 318 316 318 318 318 319 318 316 313 312 312 313 314 313 313 314 314 313 312
334 332 336 338 338 339 338 338 338 337 338 339 338 339 341 343 342 342 343 342 342 341 340 340 339 339 338 337 337 337 336 337 337 337 339 341 343 344 345 345 344 343 343 343 343 342 340 339 339 339 340 341 342 343 339 336 334 332 330 328 329 326 324 324 323 323 319 316 312 311 312 313 315 315 311 310 311 312 313 314 314 312 311 312 313
330 331 335 335 338 338 337 338 339 339 339 339 339 340 341 342 343 343 343 342 342 343 341 339 341 342 341 340 338 338 340 342 341 340 341 341 344 344 345 344 343 342 343 343 342 342 341 340 340 340 341 341 340 340 337 334 332 330 330 328 325 326 324 324 324 327 320 319 317 312 308 308 310 310 313 311 311 313 312 310 310 309 308 309 311
329 331 332 335 337 337 337 337 338 339 339 339 340 339 340 341 343 343 342 342 344 343 342 344 343 343 343 344 343 341 339 341 343 343 343 343 342 344 344 344 342 343 343 343 343 342 342 341 341 340 341 342 341 339 336 333 332 330 330 329 327 322 320 319 323 323 321 316 311 314 311 311 308 307 309 310 312 311 310 309 309 308 308 309 310
329 331 334 334 335 335 336 336 337 337 338 338 339 339 340 341 343 344 343 342 344 343 343 344 343 341 341 342 343 341 341 340 338 337 338 339 341 340 340 341 342 342 343 343 343 342 342 342 341 341 341 341 342 340 336 334 332 330 330 329 328 325 320 319 319 324 321 325 319 310 308 308 312 313 310 310 310 309 309 310 310 309 308 308 308
330 331 333 335 335 335 336 336 336 337 337 338 340 340 341 341 342 343 343 343 343 343 344 343 341 339 337 335 334 334 335 333 333 333 334 335 336 339 341 340 341 342 342 342 343 342 341 342 342 342 341 340 340 340 338 334 332 330 330 329 329 329 324 319 318 324 322 324 324 328 325 318 315 311 309 306 311 312 311 310 310 310 310 309 308
328 332 334 335 336 335 334 335 336 336 337 339 340 340 341 341 342 343 343 343 343 343 343 342 341 339 339 338 337 336 335 336 339 340 337 337 339 338 339 340 341 341 341 341 342 342 342 342 342 342 342 342 342 341 338 335 332 331 330 329 329 328 326 321 320 320 321 322 322 325 325 323 319 311 309 310 304 308 309 309 310 311 310 309 307
324 327 332 335 336 334 333 334 335 336 337 339 339 339 340 341 342 342 343 343 343 343 342 342 340 339 339 339 339 338 339 338 337 339 341 339 338 338 338 338 340 341 340 340 341 341 342 341 342 342 341 341 340 339 338 336 333 332 331 331 330 327 327 325 322 322 317 316 321 322 321 320 320 318 318 313 312 307 305 308 310 311 311 311 309
324 326 331 334 335 335 335 335 336 337 337 338 338 339 340 342 342 343 342 343 343 344 342 341 341 340 340 339 339 339 341 341 340 340 339 338 338 338 337 337 338 340 340 340 341 341 341 341 341 341 340 340 339 339 340 337 334 332 330 329 329 328 328 329 325 322 323 321 320 321 319 317 314 317 317 317 312 312 308 305 305 309 311 312 312
321 324 328 334 337 336 337 337 337 338 339 340 340 340 341 341 341 341 341 342 343 343 342 341 341 340 339 340 339 339 339 340 340 337 336 337 335 335 336 335 336 337 339 340 340 341 341 341 341 340 341 340 338 338 338 336 334 333 331 330 330 329 328 328 326 326 326 326 323 322 318 315 314 312 312 312 312 314 312 306 308 305 304 307 312
317 321 325 331 336 338 337 334 335 339 340 340 340 339 340 340 341 340 341 342 343 342 342 340 340 340 339 340 339 339 339 338 336 335 335 334 334 334 334 334 335 336 337 338 339 340 341 341 340 340 340 339 337 337 337 336 335 334 333 331 330 329 328 328 328 330 328 327 324 323 321 318 317 316 315 313 315 312 311 310 308 306 305 306 308
315 319 323 330 334 336 336 335 335 337 339 339 340 339 339 339 340 339 340 341 342 342 342 340 339 340 340 340 339 340 339 337 335 334 334 333 334 333 334 334 334 336 337 337 338 339 340 339 340 339 338 338 337 337 337 336 335 334 333 330 331 332 331 329 328 327 328 326 325 325 324 323 323 322 321 318 317 317 316 314 308 305 305 305 305
315 319 323 329 333 335 336 335 336 336 337 338 339 339 339 339 339 339 339 340 341 342 341 340 339 339 339 339 339 340 339 338 338 337 335 334 334 334 333 333 334 334 335 336 337 338 339 338 337 336 336 337 337 335 335 333 331 331 331 331 332 331 329 329 327 328 328 326 324 325 325 324 324 324 325 321 320 320 318 313 307 306 304 303 304
311 319 323 327 331 336 337 336 336 337 337 337 338 338 339 339 339 338 338 340 341 341 340 339 339 340 340 339 339 339 338 339 339 338 337 336 337 336 336 336 336 336 336 337 338 338 338 338 337 336 336 335 334 335 333 331 329 329 331 332 332 332 331 330 329 330 329 329 329 325 324 323 323 325 324 322 319 316 313 313 308 306 307 303 303
308 313 320 327 332 336 337 336 337 338 338 337 337 337 338 338 338 337 338 339 340 340 340 339 339 339 340 340 340 339 338 339 339 340 339 338 339 339 338 339 338 339 338 338 336 336 337 337 336 335 333 333 332 332 330 328 329 330 330 331 332 331 330 329 329 329 327 327 327 325 324 324 324 323 322 321 320 319 318 315 309 304 303 303 301
308 313 320 325 331 335 338 338 338 338 337 336 336 337 338 337 338 337 338 339 340 340 339 339 340 339 340 340 340 339 339 339 339 340 340 341 340 339 339 339 339 339 339 337 335 335 335 334 333 332 331 331 331 330 329 328 327 327 327 327 327 324 327 327 327 327 327 327 326 325 324 322 323 321 320 321 320 320 320 317 312 309 305 300 302
311 315 319 325 329 333 336 338 339 339 337 337 337 338 338 338 337 337 338 340 340 340 339 339 339 340 340 340 339 339 339 339 339 340 340 341 341 340 340 339 340 339 337 336 333 333 333 333 332 331 330 329 329 328 327 327 326 326 326 325 325 322 324 325 325 325 326 325 323 322 322 322 319 319 318 319 320 319 317 316 314 312 311 307 301
311 314 319 324 327 331 334 337 339 339 339 339 338 339 339 339 337 337 338 339 339 340 338 339 339 339 339 339 339 339 338 339 340 339 340 340 340 340 340 338 337 337 336 334 333 332 331 330 331 329 328 328 327 326 325 324 324 324 324 323 323 322 322 322 322 322 322 321 320 319 319 318 317 317 317 318 317 317 315 315 314 313 313 309 307
310 313 316 322 327 331 334 336 337 339 341 340 339 339 339 339 339 339 338 339 340 339 339 339 340 339 339 339 339 338 338 338 339 340 340 339 338 338 338 337 337 335 333 332 331 329 329 329 330 328 326 326 326 325 324 323 323 322 321 320 319 319 319 319 319 318 318 318 317 316 316 316 315 316 315 315 316 315 315 314 314 314 314 313 311
309 312 316 320 324 329 332 335 336 337 339 340 340 340 339 339 338 338 339 340 339 338 339 338 339 340 340 340 339 338 338 338 338 338 338 338 338 337 337 336 335 333 333 331 330 328 328 328 327 326 324 324 323 323 323 323 322 322 320 319 318 317 317 317 316 315 315 316 316 315 314 314 314 314 314 314 314 314 315 313 313 312 313 313 312
309 312 315 319 324 329 332 336 336 338 339 340 340 340 339 339 339 339 338 338 338 338 339 338 339 338 339 339 338 337 337 338 338 338 338 338 338 338 337 336 334 332 331 329 329 328 327 326 325 324 323 323 322 322 322 322 321 321 320 319 317 316 315 316 315 313 313 314 314 313 313 313 313 314 313 313 312 312 313 314 313 311 310 311 310
310 311 315 318 322 327 331 334 336 337 338 339 340 340 339 339 339 339 338 337 338 337 337 338 339 338 339 339 338 337 337 337 337 337 337 337 337 337 337 335 332 331 330 328 328 327 326 325 323 322 322 322 322 322 321 321 320 319 318 317 316 315 315 314 314 312 312 312 314 312 310 310 311 312 312 310 310 309 310 310 311 310 309 309 311
311 310 311 316 321 325 328 332 335 336 337 338 338 338 338 339 339 339 338 338 338 338 338 338 338 338 338 338 337 336 336 337 336 336 336 337 337 337 336 334 332 330 329 328 327 326 325 324 322 322 321 321 321 320 320 320 319 318 316 316 315 315 315 314 313 312 310 312 312 312 310 310 311 311 311 311 311 310 309 309 310 311 311 310 309
312 311 310 312 318 323 325 329 332 334 337 337 338 338 339 339 339 338 338 338 338 338 338 338 338 338 339 338 336 335 335 335 335 334 335 337 337 336 335 333 332 330 327 328 327 325 323 322 322 321 320 320 319 319 318 318 318 317 316 315 314 315 315 314 313 312 310 310 311 311 310 310 311 310 309 309 310 311 311 310 310 310 310 309 309
312 312 310 310 314 318 321 324 328 333 336 338 337 337 338 338 339 337 338 339 338 338 338 338 338 338 338 336 335 334 334 334 333 334 335 336 336 335 334 333 332 328 327 326 324 323 322 321 321 320 319 319 319 318 317 317 317 317 316 315 314 313 314 313 313 312 311 311 311 311 309 310 309 309 309 308 308 309 308 309 308 307 306 307 306
314 313 312 309 310 315 320 324 327 331 334 336 337 338 338 338 339 339 338 338 338 338 338 338 337 337 336 335 334 333 333 334 333 333 335 335 335 334 333 333 332 328 326 324 323 321 321 320 321 320 319 318 318 317 317 316 315 315 316 315 314 314 313 312 312 312 311 311 311 311 310 310 309 308 308 309 310 309 309 308 307 306 305 307 308
313 314 314 311 310 313 318 324 327 331 334 336 337 337 338 338 339 339 339 338 338 338 337 336 337 337 335 334 333 333 333 333 333 333 334 334 333 333 333 332 330 328 325 323 321 319 319 321 320 319 318 318 317 316 316 316 315 314 314 314 313 313 312 312 311 311 311 311 311 311 310 310 309 309 309 309 309 309 308 308 309 309 307 308 307
314 315 314 312 311 312 317 323 328 330 334 336 337 337 338 338 338 338 338 338 337 337 336 336 337 336 334 333 334 334 333 333 334 333 333 332 331 331 331 332 329 327 325 323 320 319 319 320 319 319 319 318 317 316 316 315 315 314 314 313 313 312 311 311 311 310 311 310 310 310 310 310 310 310 310 310 310 308 309 308 307 307 307 306 305
313 318 316 312 311 312 315 321 327 330 333 335 335 337 338 338 338 338 338 337 337 337 336 336 336 335 334 334 334 333 333 333 332 332 332 331 330 330 331 330 328 327 324 323 321 320 318 318 318 318 317 317 316 316 315 315 314 313 314 313 312 311 311 310 310 310 310 310 309 310 310 310 310 310 309 309 309 309 308 306 308 308 306 306 306
314 317 319 316 312 312 315 321 326 329 331 333 335 335 337 336 337 338 338 338 338 336 335 335 335 335 335 334 333 333 333 332 332 331 331 331 330 328 327 327 326 327 324 323 321 320 318 317 316 316 316 316 316 316 312 307 308 313 313 312 312 311 310 310 309 309 309 309 309 309 309 308 308 307 304 301 300 302 306 308 307 307 306 306 306
312 316 318 317 314 313 314 318 324 328 331 333 334 335 336 337 337 337 337 338 337 336 335 335 334 335 334 333 333 332 332 331 331 331 331 329 328 328 327 326 326 325 323 321 320 318 317 316 315 313 313 314 315 314 303 299 299 303 311 313 311 311 311 310 309 309 308 308 308 308 310 308 308 306 304 298 298 298 299 300 301 304 307 307 306
310 312 317 317 314 313 314 317 321 327 332 333 334 335 336 335 336 337 337 338 336 335 335 335 335 335 334 333 332 332 331 331 331 330 330 329 327 327 327 327 325 323 323 321 319 317 317 316 315 314 314 314 315 306 297 297 297 298 305 312 312 311 310 310 310 309 309 308 308 310 311 310 310 309 307 303 301 297 295 295 295 295 296 298 300
309 310 314 318 316 315 317 319 323 326 330 333 335 335 335 335 335 337 338 336 335 335 335 335 335 334 333 333 332 331 331 330 330 330 329 328 327 326 325 323 322 323 322 318 316 316 317 316 316 315 314 314 316 300 296 296 296 296 298 307 311 311 310 310 310 309 309 309 309 309 310 312 311 308 307 306 305 304 298 295 295 295 295 293 292
310 311 314 319 319 317 318 322 324 327 331 334 336 336 336 337 337 337 336 335 335 335 335 334 334 334 333 332 331 331 330 330 330 329 328 327 326 326 326 324 323 322 320 318 318 318 318 316 316 316 316 315 316 300 296 296 296 295 296 301 312 311 311 310 310 309 310 309 309 309 309 310 310 309 309 308 307 307 305 303 302 301 302 299 292
311 312 314 321 322 321 323 326 327 329 333 334 335 335 336 336 336 335 336 335 334 334 334 334 333 333 333 332 331 331 330 330 330 329 328 326 326 326 325 324 323 322 320 317 317 317 317 316 316 317 316 315 315 297 295 295 295 295 295 299 312 311 311 311 310 310 310 310 310 310 310 309 310 310 307 306 307 307 306 305 304 303 303 302 302
314 314 314 321 325 324 326 328 331 332 332 332 333 335 335 335 336 335 335 335 335 334 333 333 333 332 332 332 331 330 329 329 329 328 326 325 325 326 325 325 324 322 321 319 317 318 317 315 316 316 316 314 312 294 295 294 294 294 294 308 311 311 310 310 309 310 309 310 311 311 311 309 308 309 304 296 301 306 305 304 303 303 303 303 303
316 317 318 325 328 329 331 332 332 332 332 333 335 335 335 334 334 334 334 334 333 333 333 332 332 333 332 332 332 331 330 329 328 326 326 326 325 325 325 323 321 319 317 316 315 316 317 316 315 315 315 313 310 297 294 294 294 293 298 309 310 309 309 309 309 309 309 310 311 310 309 306 307 308 299 292 293 299 304 303 302 302 301 301 300
318 319 325 328 329 331 332 332 333 334 334 334 335 335 334 333 333 333 332 332 332 332 333 332 332 333 332 332 332 331 329 328 328 326 326 327 327 327 325 322 322 320 317 316 315 316 317 316 314 313 313 311 308 299 294 294 294 294 301 309 309 308 308 309 309 309 309 309 309 307 307 307 307 306 294 291 291 298 303 303 302 301 300 299 301
318 318 325 328 329 331 331 332 332 331 333 334 335 334 333 331 331 331 331 330 331 331 331 332 332 332 332 332 332 331 330 329 328 327 327 327 327 326 326 323 322 320 319 318 316 317 316 314 313 312 309 311 309 300 294 294 293 294 302 310 308 308 308 308 307 306 307 308 308 307 306 305 306 303 291 291 290 297 304 303 302 301 299 299 300
319 321 328 329 329 330 330 331 331 332 334 334 334 333 331 330 330 331 330 330 331 332 332 332 332 332 331 331 331 329 329 328 327 327 327 328 328 326 325 322 321 318 318 319 317 317 314 312 312 312 312 313 310 304 297 293 294 294 298 309 308 307 306 306 306 305 305 306 307 307 304 295 295 293 291 290 290 292 302 303 303 301 299 298 303
319 319 318 328 329 330 330 331 332 333 334 334 334 333 331 331 331 331 330 332 334 335 334 333 334 334 334 333 332 330 328 328 328 327 326 326 327 327 324 322 320 319 320 318 316 316 314 313 312 313 312 313 310 305 300 293 294 294 296 301 308 306 305 305 305 305 305 305 304 305 306 298 292 291 291 290 290 290 294 303 303 301 301 302 303
319 318 321 327 328 330 331 331 332 333 334 334 334 332 331 331 331 331 333 335 335 335 335 335 335 334 334 333 332 331 330 328 326 325 323 323 325 326 324 321 321 319 315 314 315 314 313 313 312 312 312 311 308 303 302 294 293 294 295 297 304 305 305 306 305 305 304 304 303 303 306 300 291 291 290 290 290 290 290 300 302 295 295 293 304
318 320 320 323 327 327 328 330 331 333 334 334 334 331 331 330 330 332 334 335 335 335 336 335 334 333 332 332 331 330 328 326 324 324 323 322 323 322 322 321 318 317 314 311 311 312 311 310 309 308 308 307 307 304 297 298 293 293 294 295 297 302 296 307 306 305 305 305 305 306 305 297 291 290 290 290 290 289 291 296 293 292 293 290 297
317 317 319 322 326 327 328 329 330 332 333 334 334 331 330 330 330 334 335 335 335 335 335 333 333 332 332 332 332 331 329 326 324 324 323 323 321 320 319 319 317 316 314 311 311 311 310 309 307 305 305 305 305 303 297 296 296 292 293 294 294 296 296 306 308 308 308 307 306 306 304 293 292 291 290 290 290 290 293 291 291 291 290 292 301
316 316 319 322 324 326 326 327 329 330 331 332 334 332 330 329 332 334 334 334 334 333 333 331 331 330 329 332 331 329 328 327 325 324 322 321 319 318 316 317 316 315 314 313 310 309 308 307 305 303 303 304 305 304 301 297 294 293 293 293 293 293 293 295 305 308 309 308 301 297 295 292 291 291 290 290 290 290 290 291 291 291 293 300 301
316 316 318 322 324 325 326 325 326 329 330 330 332 332 329 330 332 332 333 334 333 332 330 329 329 329 328 329 327 327 327 326 325 324 323 321 318 317 316 315 314 314 315 313 308 307 307 306 304 303 302 303 304 303 302 301 296 295 294 293 293 293 294 294 300 305 299 297 295 294 293 292 291 292 296 297 298 297 291 291 291 292 300 300 301
314 313 316 321 322 322 321 321 321 322 325 327 330 330 330 330 330 331 332 332 331 329 327 328 329 328 328 328 325 325 325 325 326 324 323 320 318 318 316 312 312 313 312 311 307 306 306 304 303 304 303 303 303 304 303 301 299 299 300 299 296 297 294 294 298 304 299 301 299 297 298 294 296 293 294 295 296 295 295 296 297 298 300 301 302
314 314 316 319 320 319 319 319 320 322 325 326 327 328 328 329 329 331 331 330 327 327 327 327 328 327 325 325 325 309 317 323 322 321 319 318 318 318 317 314 313 312 311 310 308 306 305 305 305 304 303 302 303 304 305 303 301 300 300 300 299 300 301 300 299 302 304 304 302 295 296 299 300 299 298 299 300 300 298 298 299 300 300 301 300
313 313 313 315 316 317 318 318 318 322 324 325 325 325 327 328 328 328 328 327 325 319 323 326 327 326 324 321 323 321 322 322 320 319 320 319 317 316 317 318 318 316 315 313 310 309 308 308 308 306 304 303 303 303 305 299 302 297 298 300 300 300 302 302 300 297 304 304 303 301 301 301 301 300 296 300 300 300 300 300 301 301 301 301 301
314 314 314 314 313 314 314 315 316 319 321 321 322 322 324 326 326 326 326 325 322 321 322 324 325 324 322 319 319 319 321 319 318 317 317 315 302 304 311 317 316 306 302 302 303 310 311 310 310 308 307 305 304 305 298 296 295 294 294 295 296 296 297 301 297 293 299 302 302 302 302 300 301 300 300 299 301 301 300 299 299 295 299 299 297
313 313 313 312 312 312 313 313 314 316 318 320 320 320 322 323 324 325 325 324 323 319 319 321 318 319 316 317 318 319 320 319 317 316 315 310 309 304 297 300 304 300 299 299 300 300 299 301 307 308 304 296 297 295 294 295 294 294 293 294 294 294 294 294 293 297 299 300 300 300 300 300 299 302 300 300 300 300 297 297 297 296 296 296 293
Wind_Speed
15 14 10 10 12 11 10 10 11 12 13 13 13 13 13 13 14 15 13 14 13 12 11 11 11 10 9 9 9 8 9 6 6 6 7 7 8 7 7 6 7 7 8 8 7 7 6 6 7 7 7 7 7 8 7 8 7 7 7 6 10 9 7 8 8 9 10 7 5 5 4 3 4 3 4 4 5 4 4 5 4 4 5 5 4
5 5 7 9 11 12 11 11 13 15 14 15 16 15 13 13 15 13 12 14 14 13 12 11 11 10 10 10 9 8 9 7 7 6 7 6 7 7 7 7 7 8 8 8 8 8 7 7 7 7 7 7 7 6 7 7 8 7 8 7 5 9 8 10 9 10 6 8 9 6 3 3 2 2 3 5 5 5 5 5 5 5 5 5 4
9 8 9 12 13 14 12 12 13 16 16 16 15 14 14 13 12 13 12 14 14 13 12 12 11 10 10 8 9 7 7 4 5 5 6 6 7 7 7 7 8 9 9 9 8 8 8 7 7 7 8 8 8 7 7 8 8 10 10 9 8 4 6 7 9 5 6 6 6 7 5 5 3 3 4 5 5 5 5 6 6 6 6 5 5
13 13 14 13 14 13 13 12 13 13 12 13 14 16 13 12 12 13 14 14 11 12 14 12 12 12 9 5 6 5 6 5 5 5 6 7 7 7 6 7 9 8 10 9 8 8 8 8 8 8 8 9 9 8 8 8 8 9 8 8 10 9 7 8 7 2 6 11 7 3 5 4 5 7 7 6 6 6 7 6 6 5 6 6 4
14 13 12 12 14 14 14 14 13 14 14 16 15 15 12 16 14 14 14 15 12 13 15 13 11 10 7 4 5 5 3 6 6 7 8 8 7 8 8 9 10 9 9 10 9 9 8 8 8 8 8 9 8 8 8 9 10 9 9 9 10 10 9 7 6 3 6 3 5 6 3 4 5 4 8 5 6 7 8 8 6 6 6 6 5
16 16 16 16 16 14 14 13 14 13 14 15 16 16 14 12 13 13 12 13 14 16 16 14 13 12 11 11 10 11 9 12 12 12 11 10 11 9 9 10 10 10 9 10 9 8 9 9 9 9 9 9 8 8 7 7 9 10 10 9 9 8 10 9 8 4 6 2 2 2 1 2 4 6 7 5 6 6 6 8 7 8 6 6 5
11 12 13 14 15 16 15 15 16 17 16 14 13 14 15 14 15 15 13 13 14 16 17 14 14 13 15 12 9 10 10 9 8 8 10 10 9 10 9 9 10 10 10 9 9 9 8 9 9 8 8 8 7 7 7 9 9 10 8 8 7 6 7 10 11 8 4 4 3 1 2 1 5 8 6 4 5 6 6 7 8 8 7 7 6
12 14 15 15 15 16 17 16 15 16 17 12 13 14 17 17 17 16 12 12 14 16 17 16 15 15 15 11 10 10 9 9 10 9 7 8 9 9 9 9 10 10 9 9 9 9 9 9 9 9 9 8 7 7 7 7 7 6 7 7 5 7 9 8 9 8 10 8 6 4 2 2 5 0 5 6 4 6 7 6 5 6 6 6 5
13 10 13 16 16 15 15 16 18 16 12 13 15 15 16 15 15 14 14 13 14 16 17 18 17 16 14 11 10 8 8 6 7 7 7 9 9 9 9 9 9 9 9 9 9 10 9 9 10 10 9 9 7 7 6 7 9 8 8 7 8 7 7 5 7 8 8 7 8 5 3 4 4 1 3 3 3 4 5 8 7 5 4 5 4
11 10 10 14 15 16 15 15 15 13 12 13 11 9 11 13 15 17 16 14 13 16 16 20 20 16 13 12 12 10 8 7 7 9 10 10 10 10 9 9 9 8 9 9 9 10 10 9 8 9 8 8 7 8 7 8 8 8 9 9 9 8 6 6 8 7 8 6 8 6 6 4 4 3 4 5 1 4 3 6 8 9 8 7 5
9 9 9 10 11 12 8 11 10 5 7 9 10 13 14 15 16 17 18 14 15 17 17 21 19 18 15 13 14 12 11 10 9 10 10 10 10 11 10 9 9 9 8 8 9 10 10 8 8 8 7 7 7 7 8 8 8 8 7 8 8 9 7 7 6 6 6 6 8 7 8 8 7 7 7 7 6 4 4 4 5 7 7 7 6
10 11 10 9 9 10 9 9 7 9 10 11 11 13 14 15 15 17 15 16 16 16 17 19 19 19 17 14 14 12 12 11 14 14 13 13 12 11 9 8 8 8 9 8 9 10 9 7 7 7 7 7 7 7 7 7 5 2 5 7 7 8 6 6 6 6 7 6 8 7 8 7 7 7 6 7 7 6 5 4 5 5 4 4 5
9 10 9 8 9 11 12 11 10 11 13 15 15 15 15 16 17 18 17 17 16 16 19 21 20 20 18 15 13 11 13 13 13 12 13 13 12 11 10 10 9 9 9 10 10 11 10 7 7 7 6 7 7 7 6 5 6 7 6 7 7 8 7 8 7 8 9 8 8 7 7 7 7 6 4 5 5 3 5 3 3 5 5 5 5
8 9 10 10 10 10 12 11 13 13 14 14 14 14 14 14 17 19 19 18 16 16 19 22 21 18 17 14 13 11 13 12 11 11 12 11 10 11 11 10 11 12 11 12 11 11 9 8 8 7 7 7 7 6 6 5 7 7 7 7 7 6 6 8 8 8 8 8 6 6 7 6 7 4 4 4 5 5 5 6 5 3 3 5 5
8 9 11 11 11 12 11 11 12 13 14 13 12 14 14 15 16 18 16 17 20 19 18 21 19 17 16 14 12 12 12 12 11 10 11 11 9 9 9 8 8 9 9 9 9 9 8 8 8 7 7 6 6 6 4 5 6 5 5 5 4 4 5 6 6 7 7 7 6 6 6 6 6 4 4 6 6 7 7 6 7 7 4 4 5
9 10 11 13 11 12 11 11 12 13 14 12 13 13 14 16 17 18 19 19 19 18 20 21 17 16 16 15 14 12 11 11 10 9 9 10 10 10 9 9 7 7 7 8 8 9 8 8 8 7 7 6 6 6 6 5 5 5 4 4 5 2 5 7 6 6 7 7 7 6 5 6 4 4 5 5 6 6 6 6 8 8 8 7 6
8 10 11 13 13 12 12 13 12 13 13 14 15 16 19 18 16 18 18 16 18 18 20 20 18 16 16 16 15 14 14 14 12 12 11 10 9 9 8 8 7 7 6 7 8 8 8 8 8 7 7 6 6 6 6 5 6 5 5 5 5 4 5 6 5 5 5 5 5 6 6 4 3 3 3 4 4 4 5 6 8 9 8 6 7
11 12 13 14 15 15 13 13 14 15 17 17 18 17 16 16 17 18 18 19 19 18 21 19 20 16 16 17 16 15 15 14 12 13 11 10 9 8 7 7 8 8 7 7 8 9 8 8 8 7 7 7 7 6 6 6 6 5 5 5 4 4 4 3 3 4 4 4 4 4 4 4 3 4 4 3 3 4 5 6 7 7 7 8 6
9 11 11 12 14 14 12 14 16 16 16 17 18 18 16 15 15 16 19 20 18 16 19 17 18 13 14 16 16 16 15 16 15 12 11 11 11 10 9 9 7 7 8 8 8 8 8 8 7 8 7 7 7 6 6 6 6 5 5 4 4 4 4 4 4 4 4 4 5 6 4 4 4 4 3 3 2 3 4 5 5 4 5 7 6
10 10 11 13 15 17 16 15 16 17 17 15 16 14 17 17 17 16 14 14 18 21 21 21 18 15 13 14 15 16 18 17 17 16 13 11 12 11 10 10 9 8 9 10 9 10 9 9 7 7 7 7 7 6 7 7 6 5 5 5 5 5 5 5 5 4 4 5 6 6 6 5 4 4 4 3 3 2 2 3 4 5 5 4 5
10 11 11 13 14 15 16 15 16 16 16 16 15 17 17 16 17 17 18 20 19 22 20 20 18 18 15 17 18 19 20 17 18 17 16 12 11 11 10 10 9 9 9 10 10 10 10 9 9 8 9 8 8 7 6 6 6 6 5 5 6 6 7 5 5 5 4 5 6 6 6 5 5 4 4 3 3 3 3 3 3 4 5 5 6
8 10 12 12 14 14 15 15 14 14 15 15 12 12 15 16 16 16 16 17 18 21 22 22 20 19 19 16 19 18 18 17 17 16 17 16 15 11 11 10 11 10 10 11 11 9 9 10 9 9 8 8 8 8 7 6 6 6 5 4 5 7 7 6 5 6 6 5 5 6 6 5 4 4 4 4 4 4 4 4 5 5 5 5 5
9 10 12 12 12 14 15 17 18 17 15 16 15 15 15 17 16 16 18 20 21 24 22 20 18 19 21 18 19 18 18 18 18 16 17 17 15 11 10 10 11 9 10 10 10 10 10 10 9 9 9 8 8 8 7 7 6 7 7 6 6 7 7 7 7 7 7 6 6 6 6 5 4 5 4 3 3 3 3 3 4 3 4 4 4
10 10 10 11 12 12 13 16 17 15 14 15 14 14 15 15 16 17 20 20 21 19 19 21 20 20 20 18 19 18 19 18 18 16 18 18 15 15 14 11 11 9 10 9 9 10 10 10 9 9 9 9 8 7 7 7 8 8 7 8 7 7 7 7 7 7 7 7 7 7 6 6 6 6 5 4 3 3 3 3 3 3 3 4 3
10 11 11 11 12 14 15 15 14 14 14 14 16 16 16 16 18 20 20 20 21 20 20 20 20 20 19 18 19 18 20 20 18 16 18 17 16 14 13 15 11 10 10 10 9 9 9 10 9 10 10 9 9 9 8 8 7 7 8 7 7 7 7 7 7 7 7 8 8 7 8 7 7 7 6 5 4 4 3 4 4 4 5 6 4
9 10 11 12 14 15 14 14 14 14 15 15 15 16 16 17 18 18 18 20 21 20 21 21 19 18 17 20 19 19 20 21 19 17 18 18 16 14 14 13 12 12 10 10 10 9 10 11 11 11 10 10 9 9 9 9 8 8 7 7 7 7 7 7 6 7 7 7 7 8 8 8 8 7 6 5 5 5 5 5 7 6 6 6 6
11 11 11 11 12 14 16 15 14 15 15 15 16 16 15 16 17 20 20 20 21 19 20 20 19 20 18 19 19 20 19 20 18 16 16 15 15 14 14 14 12 11 11 11 10 10 9 11 11 10 10 10 10 9 9 9 9 9 8 8 7 7 6 6 6 7 7 7 7 7 7 7 8 7 7 7 6 7 6 6 5 5 5 6 6
10 10 12 14 15 15 14 14 15 15 15 15 15 16 17 16 18 20 20 17 16 19 20 19 20 18 19 19 19 18 16 15 11 11 14 12 12 11 13 14 12 12 12 12 12 12 10 10 10 10 10 9 9 9 9 9 9 9 8 8 7 7 7 6 6 6 6 6 6 7 7 7 8 7 8 8 8 6 5 5 3 4 5 6 6
13 11 11 13 14 13 15 16 16 16 16 17 16 16 15 14 15 19 18 20 18 16 18 20 19 21 19 18 16 16 16 14 14 15 15 11 11 12 14 14 11 11 9 12 12 12 11 11 10 10 10 9 9 8 8 8 9 9 8 8 8 9 8 8 7 7 6 6 6 6 6 7 7 7 9 7 5 6 6 6 5 5 6 6 5
12 11 10 11 13 14 14 15 16 18 18 18 16 16 16 18 21 21 21 20 17 19 20 20 21 21 17 16 17 16 16 17 18 17 16 13 11 11 12 12 12 11 11 11 11 11 11 11 11 10 9 8 7 6 9 13 11 9 9 8 8 8 9 8 8 7 7 7 7 6 6 9 9 7 7 7 8 9 6 6 6 6 6 6 6
12 11 10 9 10 13 14 15 17 19 19 18 17 17 18 19 20 20 21 20 20 19 21 21 21 18 16 16 16 16 17 18 18 14 10 11 12 10 11 12 11 11 12 11 11 12 11 10 11 11 10 8 7 7 14 14 13 13 10 9 9 8 8 9 9 8 8 8 7 7 7 8 8 8 9 10 9 8 4 6 6 6 5 6 6
13 13 11 10 10 11 14 16 17 17 16 16 16 17 17 18 21 21 21 19 20 20 19 20 20 16 16 17 16 17 16 17 17 14 12 11 10 10 14 15 11 12 11 10 11 11 11 10 9 10 10 9 9 11 17 15 14 14 11 9 8 8 8 8 8 9 8 8 8 7 6 6 7 8 8 8 8 6 4 6 6 5 3 4 0
14 15 14 11 10 11 12 12 12 14 15 16 16 16 18 21 21 21 17 17 19 18 19 18 17 17 14 13 15 17 17 17 18 17 12 11 14 14 13 11 13 11 11 11 12 11 11 11 11 12 11 10 9 14 17 17 15 15 13 10 8 8 9 8 9 9 9 8 8 7 7 5 5 10 9 8 8 6 5 6 6 5 1 2 1
15 15 14 12 10 10 11 13 13 13 14 12 13 13 13 13 13 13 16 17 16 14 16 15 17 16 17 16 14 16 17 18 16 12 11 11 14 19 16 12 10 11 11 12 12 14 12 12 12 12 12 11 10 15 17 17 16 16 15 11 8 9 9 9 9 9 8 9 9 9 8 7 6 8 6 7 7 6 6 5 5 6 6 4 1
16 14 13 11 11 11 11 12 13 14 12 11 11 14 13 12 13 15 12 14 15 16 16 14 12 16 14 13 14 16 17 16 16 13 12 12 18 18 14 12 12 12 13 12 12 13 12 12 12 11 10 10 8 18 18 18 17 17 16 11 8 8 8 8 8 9 9 9 9 8 8 7 7 7 7 8 7 7 7 6 6 7 6 7 6
15 14 13 12 10 10 11 11 10 12 13 14 14 15 16 16 15 16 16 16 15 14 14 12 12 13 14 13 14 14 14 15 15 12 14 15 17 18 18 14 13 10 9 9 9 11 13 13 12 12 10 10 8 18 18 18 18 17 17 10 8 8 8 8 8 9 9 9 8 8 7 7 8 9 9 9 7 6 7 7 7 6 6 6 6
15 13 13 12 9 9 9 8 10 12 13 14 14 16 16 16 15 15 16 14 13 13 12 13 13 12 13 13 16 16 15 15 13 16 16 17 18 16 10 8 9 9 10 9 10 11 11 12 12 10 11 9 10 17 19 19 18 19 15 9 9 8 8 8 8 8 9 8 8 9 8 9 10 9 10 12 9 8 8 9 8 8 7 7 7
14 12 10 8 6 4 7 10 12 13 14 14 17 17 15 14 13 11 11 11 12 11 11 11 11 11 12 11 14 14 14 14 12 15 16 18 17 16 13 10 12 12 11 12 10 10 10 9 11 12 11 10 9 15 21 20 20 20 16 10 9 8 8 8 7 8 7 8 9 13 12 11 10 9 13 13 13 10 9 9 8 8 9 9 8
15 13 10 6 6 8 10 11 13 15 15 17 17 18 14 14 12 12 11 10 10 10 10 10 9 8 8 9 10 10 10 11 12 11 12 16 17 16 12 8 8 10 11 11 10 10 9 8 9 10 13 13 9 13 19 20 20 20 15 10 10 9 9 8 8 8 7 7 8 10 13 11 11 10 15 13 14 12 9 9 9 9 10 11 10
16 13 8 6 8 10 12 12 13 15 15 17 17 17 17 16 16 15 15 14 13 13 12 10 10 10 10 10 10 10 11 11 8 12 8 13 14 9 9 11 9 9 9 9 10 10 11 9 9 9 10 11 10 10 15 19 20 20 18 11 9 9 9 10 9 9 9 8 8 7 10 11 12 12 14 14 14 14 10 10 9 10 10 11 8
14 10 6 6 8 9 11 12 11 13 14 16 16 16 16 15 16 16 17 18 17 14 14 14 14 14 15 15 14 14 13 11 12 12 10 9 10 10 12 10 12 11 9 8 10 9 9 9 9 10 10 10 8 11 13 19 19 19 18 13 8 7 7 8 8 8 9 8 8 8 7 12 12 12 13 14 14 15 12 9 10 10 10 6 6
8 4 3 1 5 7 10 11 11 13 13 14 15 15 16 16 17 18 18 16 16 16 15 15 16 16 17 16 13 13 14 12 9 8 9 10 12 12 11 11 9 12 13 12 9 7 9 8 7 7 7 7 7 11 11 15 18 19 18 16 10 11 10 9 8 8 8 7 8 8 7 12 16 13 13 14 14 14 14 9 10 12 6 9 6
9 8 7 2 3 6 8 10 11 13 12 13 14 16 14 13 15 15 15 16 16 16 17 17 14 15 16 16 16 18 16 15 18 21 21 18 13 12 13 13 14 13 13 13 12 10 9 9 8 6 5 6 7 7 14 13 16 18 18 15 15 11 12 9 10 9 9 8 8 8 8 13 16 14 14 14 15 16 12 10 11 10 8 9 5
8 8 8 4 2 3 4 6 8 10 11 11 13 14 13 14 16 14 13 15 15 16 15 14 11 14 14 13 14 15 15 14 15 13 13 14 14 13 12 10 15 15 12 10 11 10 9 9 9 8 7 7 7 7 12 17 15 18 17 15 13 14 15 11 10 8 9 9 8 8 8 15 15 15 15 14 14 13 10 14 11 11 9 7 6
8 10 9 8 4 4 4 4 6 7 6 7 10 12 13 14 11 9 12 14 15 12 9 11 13 12 12 12 14 15 16 13 14 16 16 15 16 15 13 11 13 14 13 11 9 10 10 8 9 10 9 7 7 7 8 14 18 17 17 15 14 14 14 14 9 8 7 8 10 12 12 15 14 14 15 14 11 13 15 13 13 10 8 6 7
9 11 11 9 8 6 5 4 2 2 3 6 6 7 10 11 11 11 12 13 13 12 12 13 12 10 11 11 11 13 15 15 13 11 11 11 14 13 14 13 12 11 9 9 9 8 9 10 11 10 10 10 9 9 8 8 10 14 16 20 20 17 13 14 12 9 11 12 12 12 13 13 12 11 9 7 7 9 14 14 9 8 7 7 7
14 13 11 11 10 10 9 7 6 6 3 1 4 4 4 7 8 9 10 9 10 11 11 11 11 11 11 12 12 12 13 14 14 12 11 9 9 10 11 11 11 12 10 10 11 11 10 10 11 11 10 10 9 10 10 8 9 10 9 11 11 10 11 11 10 5 6 6 8 9 8 10 8 12 10 7 9 8 8 7 6 7 8 8 7
13 13 12 12 12 11 9 7 7 6 4 2 1 2 3 5 6 7 9 10 9 10 11 12 12 10 9 9 11 13 12 10 10 10 10 10 11 15 15 12 12 12 13 12 11 12 12 13 11 11 9 9 10 10 11 12 11 10 9 9 9 9 9 8 8 8 7 7 7 7 7 6 5 5 5 4 5 6 7 7 8 8 9 9 9
13 13 12 10 10 10 9 8 8 6 4 3 3 3 4 5 6 6 5 8 8 10 10 10 10 9 9 9 10 10 10 10 10 10 10 11 11 12 12 12 10 12 13 12 12 12 13 12 12 12 11 9 9 11 11 13 16 16 14 10 9 9 10 10 13 12 8 6 6 7 7 7 6 7 5 7 7 7 7 7 8 8 7 8 7
11 9 9 10 10 10 10 9 8 7 7 6 6 5 4 3 4 5 7 7 7 6 7 8 9 9 7 8 8 9 10 10 9 10 10 5 5 3 4 9 11 9 9 14 16 16 14 12 11 12 11 13 14 13 15 19 17 17 17 18 16 17 16 13 13 15 11 8 9 8 8 7 8 8 7 7 8 8 8 8 7 7 6 6 6
10 10 11 11 11 10 10 10 8 7 7 7 6 6 5 4 2 2 4 5 5 5 6 6 5 5 6 8 9 10 9 7 9 10 9 8 6 5 10 6 3 8 14 13 10 8 12 15 14 11 5 4 8 14 19 17 17 17 19 19 18 17 17 15 14 13 9 8 7 7 8 8 8 8 6 8 8 7 6 5 5 6 6 6 6
Wind_Direction
218 208 197 182 178 174 168 167 168 173 181 184 187 192 190 179 172 188 192 190 189 190 198 202 205 205 205 202 202 197 197 181 180 179 176 183 183 186 181 178 176 182 189 185 183 180 182 177 173 174 178 186 184 183 167 161 159 154 143 143 138 129 129 139 137 132 124 109 105 115 115 93 96 117 151 162 171 170 162 162 153 161 154 153 152
205 165 174 168 177 174 168 172 169 174 188 186 192 192 188 185 177 177 182 191 195 193 193 201 206 205 200 202 199 193 192 184 181 183 181 177 181 184 182 177 179 187 188 186 180 181 178 176 176 176 182 189 189 178 156 152 153 149 146 137 149 145 148 159 156 143 150 153 151 144 124 114 93 145 192 191 189 183 179 175 169 174 163 161 162
196 196 181 184 178 174 174 175 181 187 187 187 189 182 187 188 184 175 179 192 198 193 192 201 203 207 202 192 193 189 202 193 180 173 174 179 183 186 183 177 183 192 186 184 182 187 183 179 181 179 187 186 184 174 159 157 165 163 165 152 145 135 136 160 171 200 154 134 123 132 160 170 163 200 214 213 203 195 192 191 182 184 174 174 176
199 192 190 183 180 176 176 178 181 182 178 182 184 190 191 192 188 179 182 191 189 192 195 200 205 204 203 170 174 171 187 180 177 164 178 180 185 187 183 181 191 191 191 186 189 186 183 182 182 184 187 189 188 180 169 167 168 172 172 160 146 142 157 171 195 224 160 139 158 204 158 196 188 207 194 199 205 202 204 202 193 192 184 187 191
199 192 184 175 176 182 184 182 177 183 185 188 188 189 191 191 186 179 177 189 191 194 194 194 194 193 193 154 165 165 141 173 177 191 197 195 189 189 190 189 192 193 189 192 193 187 185 186 186 187 185 189 190 182 175 176 177 177 173 165 168 156 162 170 190 205 190 197 145 129 133 211 237 143 172 183 196 207 210 212 198 209 194 194 206
195 189 186 183 182 181 187 182 180 186 188 190 188 189 182 180 181 180 177 182 194 198 194 193 198 194 191 196 193 201 195 196 197 194 189 194 197 190 186 188 190 191 187 192 195 186 188 191 192 187 186 187 189 187 175 169 178 182 182 178 179 170 158 163 176 194 204 205 249 333 319 302 169 147 172 188 179 220 211 210 207 209 210 204 208
210 200 187 182 186 183 185 182 187 191 196 186 180 180 180 183 181 182 182 180 192 196 193 192 197 199 197 193 192 198 204 203 201 192 190 193 190 186 184 186 188 187 188 188 188 188 189 192 192 187 184 185 179 182 178 180 185 187 177 184 184 167 148 169 180 176 187 232 217 276 301 264 143 145 199 138 181 189 218 209 213 210 208 215 207
202 194 192 194 190 187 186 188 188 196 193 174 177 181 184 184 179 182 184 175 183 195 193 195 200 203 202 196 196 195 196 194 199 198 179 185 189 187 181 182 187 189 184 186 187 188 190 191 191 188 190 186 180 188 187 183 181 180 179 178 171 173 183 180 178 169 179 198 196 204 174 140 159 127 180 202 213 178 189 204 212 203 204 214 217
215 191 189 191 194 199 197 190 196 194 176 176 179 185 185 179 175 179 184 176 178 181 192 197 202 203 199 194 197 200 192 174 176 184 180 194 191 186 185 180 183 189 186 183 187 191 191 193 189 191 189 190 183 190 185 178 183 176 174 180 193 192 197 192 160 182 195 190 170 192 171 162 165 158 185 192 218 206 186 181 188 170 209 206 198
227 220 186 194 196 198 197 195 190 188 177 178 171 157 170 175 180 182 187 182 176 181 187 198 200 202 197 194 191 188 184 180 175 188 197 194 195 190 187 179 179 180 186 187 187 194 194 190 185 185 183 183 187 190 181 179 187 188 183 187 190 192 196 188 195 190 196 193 187 173 179 152 174 174 186 193 222 254 243 194 183 180 194 193 178
225 224 210 197 198 205 196 209 210 146 136 158 164 173 177 182 185 186 188 179 174 182 187 199 199 205 203 193 190 183 176 174 183 193 194 192 198 193 190 184 179 180 179 186 191 194 195 188 183 182 180 176 181 178 186 189 188 187 185 186 186 193 192 197 203 205 196 194 195 190 195 187 190 199 195 197 216 199 212 208 188 199 199 169 187
220 221 221 201 188 195 186 200 172 162 163 175 177 177 179 184 185 188 186 184 179 180 185 196 200 203 201 189 189 183 174 179 195 194 195 198 198 192 192 184 183 182 184 184 190 194 191 185 177 174 176 179 184 186 187 188 156 163 189 188 197 201 195 191 202 204 201 202 202 203 210 208 212 222 211 196 206 221 222 221 191 169 177 175 146
227 222 218 201 199 191 191 192 175 174 184 185 185 183 183 184 185 186 191 186 183 177 185 195 198 200 199 190 189 178 179 182 186 184 194 197 198 194 187 189 184 185 190 189 191 187 189 177 176 177 177 181 179 183 181 162 131 196 210 198 198 196 197 198 202 204 197 202 203 205 214 214 221 223 213 203 210 226 223 207 154 170 186 164 155
240 233 223 210 204 196 196 189 187 188 188 188 185 182 183 184 186 191 193 188 184 180 185 193 196 193 192 189 187 178 183 183 183 180 186 195 191 191 191 192 192 197 190 197 190 184 186 178 173 175 173 170 173 177 177 150 156 189 204 200 200 196 194 198 208 205 203 208 204 199 206 214 221 210 206 201 193 195 207 208 150 151 170 164 151
236 232 231 223 205 200 195 187 188 191 191 188 185 188 186 188 190 194 192 188 191 186 186 194 195 190 188 188 184 184 184 184 186 181 180 188 188 184 186 185 183 189 183 188 163 173 173 169 171 169 165 167 168 167 163 159 178 182 190 197 192 186 191 199 209 202 202 204 203 209 206 213 217 201 201 214 207 209 212 190 162 156 159 173 175
228 224 226 227 220 210 201 193 192 191 190 186 190 187 188 193 194 194 192 187 188 186 192 195 187 185 185 187 185 183 183 182 184 181 183 184 183 186 186 185 187 176 170 161 165 171 167 166 165 168 163 166 170 169 166 170 168 179 179 182 188 161 192 199 206 201 209 203 202 204 210 217 203 200 208 211 216 215 219 183 188 188 176 180 187
223 220 221 222 223 216 213 204 194 191 188 190 190 190 193 193 191 193 195 190 190 191 193 193 188 178 182 186 186 184 183 184 186 182 180 183 185 186 185 183 176 174 164 164 163 168 164 165 166 161 163 163 164 166 168 166 167 180 181 176 184 176 195 200 196 200 202 190 201 194 212 205 187 185 204 210 208 210 216 205 207 210 207 206 182
224 221 218 220 220 217 207 206 203 197 194 192 195 196 197 196 193 193 191 189 190 188 193 192 188 178 182 188 189 186 187 187 183 180 179 182 185 186 179 172 183 180 166 164 163 164 163 164 165 161 162 163 165 165 169 165 169 177 176 181 174 165 182 182 192 201 186 184 183 185 198 196 165 186 190 187 194 199 204 208 212 221 219 229 203
223 225 220 218 219 222 212 205 204 203 199 196 196 196 197 195 192 194 196 196 190 189 193 193 188 183 186 185 186 189 191 196 196 178 177 183 182 184 182 183 175 167 164 163 166 165 168 171 168 162 159 162 162 162 164 166 174 168 168 172 159 173 184 185 181 183 175 179 179 178 177 171 160 168 154 158 166 189 201 206 212 219 219 234 222
212 219 219 215 216 217 216 209 206 204 204 203 201 195 194 193 193 196 193 190 193 196 194 195 189 186 181 179 185 191 195 196 196 193 189 183 183 181 179 178 177 170 173 168 171 173 174 170 170 162 160 161 164 164 170 169 171 174 168 172 166 178 188 187 176 179 167 183 173 171 171 164 158 156 154 152 156 166 188 199 203 205 208 215 219
208 215 219 218 216 215 215 212 209 207 203 200 197 193 193 189 192 190 185 188 186 197 193 197 193 197 183 184 188 194 194 195 196 194 192 184 184 180 180 180 166 175 169 172 176 177 174 172 167 166 167 164 166 166 170 168 174 168 168 168 163 183 189 183 170 165 170 176 176 168 158 145 155 159 149 152 157 155 169 187 193 194 197 189 201
226 223 221 218 217 217 216 214 212 207 204 199 193 191 195 194 192 191 189 192 191 196 198 197 194 196 192 188 190 190 190 192 191 191 194 195 194 176 175 169 175 176 175 177 179 174 172 168 167 167 166 168 172 171 168 172 171 165 162 161 175 184 191 176 172 171 171 174 168 159 148 145 157 152 146 165 165 173 179 186 182 195 193 185 196
253 234 227 224 216 213 212 211 210 208 200 196 196 195 194 193 191 189 189 196 196 200 197 192 190 193 197 193 189 187 187 191 189 189 194 195 194 175 173 172 175 172 178 180 178 173 170 169 167 167 168 170 173 169 169 171 171 174 174 175 183 187 186 177 179 175 171 165 165 157 150 148 152 148 148 142 153 175 185 179 162 181 183 172 165
262 255 237 227 224 218 216 214 213 208 198 194 192 190 192 192 192 195 197 194 198 195 193 193 192 194 192 188 188 186 186 189 190 190 194 196 194 192 192 185 178 170 176 178 175 171 165 167 169 169 172 170 170 168 168 176 178 180 181 181 183 187 188 184 182 173 168 169 168 158 154 157 160 154 152 154 162 162 159 139 134 129 136 120 98
262 264 253 237 224 218 217 217 210 200 195 193 194 194 193 191 194 201 199 195 198 195 194 194 192 188 188 188 185 183 186 187 189 191 194 190 188 187 188 192 179 170 176 171 168 168 167 170 173 176 174 174 174 171 170 173 175 180 184 179 181 184 185 186 181 175 167 172 170 170 161 163 166 157 154 161 158 150 136 131 120 117 122 125 152
265 266 259 241 228 221 216 208 202 195 193 191 193 195 193 191 193 195 196 197 195 193 193 192 189 188 188 186 183 185 189 189 186 188 190 188 185 184 185 192 188 172 171 171 169 170 175 179 180 178 175 174 175 172 175 176 177 175 180 178 177 178 182 183 177 176 175 174 173 170 164 168 170 166 161 150 148 141 132 136 142 147 144 150 150
270 262 255 251 240 230 219 208 200 194 192 190 190 192 193 193 192 195 196 195 195 192 190 188 190 190 187 185 185 188 185 185 183 182 181 182 181 182 187 193 188 172 171 171 170 167 175 181 180 174 175 174 172 172 173 172 173 176 179 176 172 172 171 173 179 178 175 176 175 168 166 169 173 168 157 158 157 159 162 154 146 141 147 152 151
262 254 251 243 235 226 218 208 201 198 193 191 190 191 191 192 193 199 195 191 187 186 185 186 191 190 187 186 189 185 183 180 167 157 174 170 171 167 186 195 186 177 177 176 174 177 176 178 173 175 175 168 166 170 173 172 174 175 174 173 170 169 172 171 172 175 173 175 173 168 169 171 173 168 164 168 170 164 143 130 127 147 152 157 160
279 263 241 237 235 224 213 207 203 199 194 191 189 189 189 190 195 199 195 193 181 173 183 188 190 191 190 184 181 180 179 171 170 173 174 163 164 169 188 193 181 177 174 179 175 175 173 176 170 169 167 168 171 172 173 171 172 174 172 171 172 174 172 171 170 171 173 172 170 167 169 174 172 173 175 161 159 145 150 154 164 166 167 170 161
273 276 262 234 229 226 214 205 201 198 197 193 189 187 185 190 197 197 195 192 174 182 187 189 190 190 184 180 179 177 175 175 179 179 176 165 166 165 177 183 180 182 176 177 176 176 172 172 166 167 166 167 172 176 173 172 171 168 171 170 170 174 175 170 167 165 168 174 173 170 172 172 172 161 136 144 156 167 174 165 163 174 178 179 163
294 286 275 256 232 222 217 209 207 201 195 191 187 186 187 189 193 194 194 189 185 184 188 190 192 184 179 176 175 175 176 178 179 171 149 158 167 166 177 182 180 180 176 174 175 174 175 176 168 164 168 173 178 179 167 171 171 165 166 169 170 172 174 172 171 167 168 171 174 176 174 172 164 153 160 170 172 169 170 135 156 185 202 183 165
304 301 288 270 246 227 217 211 206 204 198 191 187 186 184 187 194 194 192 185 184 186 187 190 186 178 175 176 174 172 174 176 171 165 160 163 160 165 183 190 179 177 173 170 173 176 178 176 172 169 170 175 183 166 166 171 171 170 171 168 169 168 173 177 175 172 168 170 172 174 166 164 176 174 165 175 172 177 164 134 153 182 244 295 308
306 305 293 271 248 234 222 218 208 202 200 199 191 183 184 189 192 193 183 177 181 186 188 186 181 179 173 173 173 175 176 174 175 175 160 158 175 179 179 175 180 175 168 170 178 176 181 181 177 174 176 178 184 160 168 169 171 173 172 169 173 172 174 177 175 175 172 172 170 169 166 170 161 157 166 169 166 158 120 112 133 150 177 177 166
303 300 291 276 251 231 217 206 204 203 198 190 190 195 195 190 184 175 170 174 177 179 184 181 183 181 179 173 166 170 173 174 171 157 156 164 175 189 187 180 169 168 174 175 178 180 181 182 183 182 179 177 179 162 168 169 170 172 170 177 174 173 177 176 176 175 172 171 170 173 175 172 166 178 172 157 169 169 160 152 167 186 189 170 143
305 304 300 282 252 230 213 195 192 185 174 166 173 186 178 168 165 170 162 167 180 182 184 177 170 179 171 168 172 174 174 171 168 160 161 170 186 191 184 182 178 176 174 175 177 180 183 184 183 182 178 172 171 159 168 168 169 168 170 180 175 171 175 173 174 174 174 174 174 176 174 166 165 170 168 183 178 174 168 170 182 184 187 181 184
306 305 296 284 250 223 207 197 178 163 169 176 174 179 180 178 176 176 177 178 179 180 179 171 176 177 174 174 172 172 169 169 168 160 170 177 185 190 189 185 184 174 173 170 182 187 181 180 182 180 177 175 157 161 167 169 167 168 166 180 174 173 175 172 173 175 178 177 174 168 152 145 173 194 166 172 185 170 176 184 187 184 185 181 187
300 305 291 278 255 220 195 168 163 166 165 169 166 174 177 173 169 173 174 174 175 177 176 176 179 177 178 175 176 175 173 173 166 172 177 181 187 189 176 163 169 172 170 171 178 190 187 183 179 177 175 174 161 170 170 170 167 165 166 181 169 174 176 174 174 175 178 174 171 162 159 186 190 196 158 171 170 175 190 193 193 186 188 189 194
317 317 292 271 237 196 164 166 162 164 164 167 168 170 161 158 162 157 158 166 171 175 174 175 180 179 180 175 175 174 174 174 166 176 179 185 188 190 185 176 182 173 179 188 183 190 185 180 173 176 177 171 164 172 172 170 165 167 172 170 167 172 173 177 172 172 176 176 177 170 185 197 186 188 159 171 168 180 201 198 196 188 188 195 194
327 313 284 234 196 166 167 164 166 169 171 169 167 161 148 155 153 156 155 156 165 163 165 170 168 163 162 168 175 175 171 172 176 169 171 182 188 190 183 171 178 176 181 182 180 183 182 181 183 184 184 181 166 173 174 167 167 169 173 168 168 172 173 177 172 169 175 179 179 186 186 191 190 171 161 171 173 185 202 199 199 199 200 202 201
319 304 264 205 168 145 155 162 166 168 166 165 162 161 159 157 160 158 163 168 168 165 161 152 152 154 158 165 172 176 179 175 166 174 171 186 187 176 172 179 183 186 181 189 184 181 172 177 182 185 181 190 168 161 174 169 169 172 177 172 169 168 173 171 176 174 174 183 179 183 189 193 188 161 168 173 181 193 204 203 201 207 207 206 192
295 302 295 184 164 158 158 163 165 163 166 166 167 166 164 164 163 168 174 179 175 165 160 163 167 169 173 174 172 172 171 171 172 174 176 182 174 182 184 176 185 186 182 175 179 173 170 173 177 182 180 179 165 162 172 171 170 174 179 173 169 164 156 161 171 176 184 179 182 190 191 184 183 168 171 179 186 197 210 206 204 212 214 189 165
294 300 330 219 156 150 152 151 155 161 166 169 172 168 168 168 174 183 182 177 174 172 169 171 176 180 179 175 169 173 169 164 158 154 171 200 199 187 182 178 177 182 180 179 177 174 178 165 159 163 165 154 155 170 156 172 172 177 178 174 164 183 172 161 174 185 183 185 183 182 198 171 177 173 176 181 190 195 206 218 213 216 170 123 179
338 7 11 25 151 158 163 158 156 162 170 174 176 173 172 169 180 183 180 182 181 181 183 184 174 174 176 177 178 175 171 170 174 185 188 190 186 184 185 184 181 183 179 171 180 176 169 163 156 146 135 131 145 159 159 164 180 177 178 179 178 169 172 182 189 187 185 184 186 188 191 162 173 176 180 184 190 195 192 213 213 202 177 167 178
357 10 20 28 110 157 165 166 161 165 173 180 184 178 176 176 187 185 185 188 188 191 191 185 176 185 186 184 184 183 181 185 186 175 175 180 184 185 186 185 187 184 181 175 180 176 171 164 157 150 147 147 148 149 173 173 177 181 175 181 186 180 179 199 195 192 185 185 183 186 176 164 174 179 185 187 192 187 196 207 209 198 177 165 206
7 18 17 25 48 132 141 152 164 166 168 192 202 191 172 178 181 172 181 187 191 185 170 184 188 188 189 190 187 182 184 186 186 181 181 181 180 177 180 183 182 186 186 176 169 176 172 161 155 164 165 158 155 152 167 185 177 173 178 185 191 194 188 195 198 202 182 182 189 183 169 165 175 181 186 189 190 194 204 203 204 186 166 198 206
14 26 29 43 54 71 102 123 99 135 184 205 219 207 183 178 168 177 183 188 189 185 181 186 187 191 194 192 185 185 189 191 189 191 191 182 179 179 177 175 179 182 176 170 174 174 173 171 172 169 170 166 161 168 170 162 174 178 181 189 195 195 189 196 206 206 192 185 183 179 168 169 174 181 180 186 192 200 205 209 197 168 199 210 214
29 21 26 45 57 59 59 66 60 37 29 292 230 223 182 166 167 166 174 181 185 188 190 193 193 196 194 193 187 188 191 194 189 187 184 177 180 182 179 174 177 178 169 173 175 182 178 175 175 176 169 166 170 174 170 156 166 171 183 191 196 199 196 197 210 198 156 176 171 173 179 179 180 177 187 183 200 185 183 192 194 199 213 217 213
22 36 33 42 53 64 64 64 56 45 56 67 212 192 159 156 155 146 164 177 182 189 194 200 200 195 192 189 192 188 185 185 184 180 179 180 185 187 185 179 182 181 171 174 168 177 181 180 180 173 164 166 178 179 172 169 173 172 174 179 181 186 187 192 190 195 182 178 170 153 134 153 155 150 180 193 202 200 193 188 197 196 205 211 214
11 23 32 44 47 52 54 53 51 44 63 91 110 128 146 136 147 158 155 174 183 191 197 199 201 200 197 192 192 188 190 180 174 182 189 183 178 183 189 195 187 177 179 170 176 180 182 184 176 171 167 176 181 183 187 177 178 176 167 162 175 187 191 196 197 177 158 153 156 163 171 164 166 172 178 191 190 195 199 198 197 198 199 200 199
19 21 22 27 38 47 49 45 36 31 29 31 33 35 44 81 143 162 171 175 186 197 208 211 207 203 197 193 197 193 193 178 166 174 177 151 21 4 269 189 179 191 190 184 168 180 185 170 177 186 181 175 183 192 170 166 171 170 176 179 186 190 191 194 174 169 176 182 185 181 179 177 177 190 191 195 195 193 197 197 197 197 201 195 192
26 33 32 32 29 28 35 36 29 29 28 25 23 20 25 38 63 140 192 200 188 190 208 221 209 207 198 195 196 199 194 173 167 170 170 155 138 78 49 64 137 170 163 158 164 155 159 174 174 167 145 53 87 121 154 167 166 172 179 188 191 193 195 190 156 154 186 196 188 187 186 186 185 191 193 198 193 193 192 187 184 174 197 197 195